Regional Weather Roundup
Issued by NWS

Home | Current Version | Previous Version | Text Only | Print | Product List | Glossary On
Versions: 1 2 3 4 5 6 7 8 9 10 11 12 13 14 15 16 17 18 19 20 21 22 23 24 25 26 27 28 29 30 31 32 33 34 35 36 37 38 39 40 41 42 43 44 45 46 47 48 49 50
000
ASUS43 KLSX 301207
RWRMO

WEATHER SUMMARY FOR MISSOURI
NATIONAL WEATHER SERVICE SPRINGFIELD MO
700 AM CDT SAT JUL 30 2016

NOTE: "FAIR" INDICATES FEW OR NO CLOUDS BELOW 12,000 FEET WITH NO
       SIGNIFICANT WEATHER AND/OR OBSTRUCTIONS TO VISIBILITY.
       CURRENT SKY AND/OR WEATHER CONDITIONS ARE NOT AVAILABLE FOR
       CHILLICOTHE AND FARMINGTON.

MOZ001>031-035>038-043-044-053-054-301300-
...NORTHERN AND WESTERN MISSOURI...

CITY           SKY/WX    TMP DP  RH WIND       PRES   REMARKS
KANSAS CTY INT PTCLDY    65  61  87 NE8       30.02R
6HR MIN TEMP:  62; 6HR MAX TEMP:  69;

KANSAS C DTWN  PTCLDY    69  64  84 NE3       30.01R
6HR MIN TEMP:  67; 6HR MAX TEMP:  72;

LEE`S SUMMIT   PTCLDY    67  64  90 NE3       30.02S
6HR MIN TEMP:  66; 6HR MAX TEMP:  70;

ST JOSEPH      FOG       62  61  96 CALM      30.02S VSB 3/4
6HR MIN TEMP:  59; 6HR MAX TEMP:  66;

CHILLICOTHE      N/A     63  61  93 CALM      30.03R
6HR MIN TEMP:  62; 6HR MAX TEMP:  66;

KIRKSVILLE     CLOUDY    67  65  93 W5        30.02R
6HR MIN TEMP:  62; 6HR MAX TEMP:  67;


$$
MOZ066>068-077>081-088>096-101>105-301300-
...SOUTHWEST MISSOURI...

CITY           SKY/WX    TMP DP  RH WIND       PRES   REMARKS
SPRINGFIELD    CLEAR     68  66  93 CALM      30.01R
6HR MIN TEMP:  68; 6HR MAX TEMP:  72;

JOPLIN         CLEAR     69  68  96 CALM      30.01R
6HR MIN TEMP:  68; 6HR MAX TEMP:  72;

BRANSON        CLEAR     68  68 100 CALM      30.03R FOG

$$
MOZ032>034-039>042-045>050-055>058-069>072-301300-
...CENTRAL MISSOURI...

CITY           SKY/WX    TMP DP  RH WIND       PRES   REMARKS
COLUMBIA       CLEAR     67  65  93 N6        30.00S
6HR MIN TEMP:  65; 6HR MAX TEMP:  70;

JEFFERSON CITY PTCLDY    67  65  93 CALM      29.99R
6HR MIN TEMP:  66; 6HR MAX TEMP:  70;

ROLLA          CLEAR     66  65  96 CALM      30.00R
6HR MIN TEMP:  64; 6HR MAX TEMP:  69;

SEDALIA        CLEAR     66  64  93 N3        30.02R
6HR MIN TEMP:  65; 6HR MAX TEMP:  72;

WHITEMAN AFB   PTCLDY    65  65 100 N3        30.00R
OSAGE BEACH    MOCLDY    69  68  96 CALM      30.01R

$$
MOZ051-052-059>065-301300-
...EAST CENTRAL MISSOURI...

CITY           SKY/WX    TMP DP  RH WIND       PRES   REMARKS
ST LOUIS INTL  PTCLDY    73  67  81 W3        29.98R
6HR MIN TEMP:  71; 6HR MAX TEMP:  76;

SPIRIT OF STL  PTCLDY    70  69  97 CALM      29.97R
6HR MIN TEMP:  67; 6HR MAX TEMP:  71;

ST CHARLES     CLEAR     69  69 100 CALM      29.97R
6HR MIN TEMP:  67; 6HR MAX TEMP:  74;


$$
MOZ072>076-082>087-097>100-106>115-301300-
...SOUTH CENTRAL AND SOUTHEAST MISSOURI...

CITY           SKY/WX    TMP DP  RH WIND       PRES   REMARKS
CAPE GIRARDEAU FOG       70  69  97 SW3       29.97R VSB 1/4
6HR MIN TEMP:  69; 6HR MAX TEMP:  70;

FARMINGTON     PTCLDY    69  69 100 CALM      30.01R
6HR MIN TEMP:  69; 6HR MAX TEMP:  72; 6HR PCP: TRACE;

POPLAR BLUFF   FOG       71  70  96 SW3       29.98R VSB 3/4
6HR MIN TEMP:  71; 6HR MAX TEMP:  71;

WEST PLAINS    MOCLDY    70  66  87 CALM      30.04R
6HR MIN TEMP:  68; 6HR MAX TEMP:  70;


$$


USA.gov is the U.S. government's official web portal to all federal, state and local government web resources and services.